ZAREMBO AK US current weather conditions

sailwx.info

Wind from 227 at 5 knots gusting 8

Air temperature 6.7° C
Dewpoint 3.8° C

Last reported at 2018-Apr-24 19:55 UTC.
Time now 2018-Apr-24 20:55 UTC

Location: N 56°18' W 132°51'.
View on Google Maps.

See reports from other nearby stations

  
Tides and Currents Weather Stations Pressure Air Temp Water Temp Dewpoint Dewpoint Depression Visibility Wind Speed Wind Dir Waves Ship Positions
date/time (UTC)wind fromknots sea level pressurealtimeterstation pressurevisibilityair tempwater tempwave heightnotes
2018-Apr-24 19:55 227 5 gusting 8 6.7
2018-Apr-24 18:55 221 5 gusting 10 6.1
2018-Apr-24 17:55 246 5 gusting 10 6.7
2018-Apr-24 16:55 220 6 gusting 12 5.6
2018-Apr-24 15:55 206 6 gusting 9 4.4
2018-Apr-24 14:55 188 5 gusting 11 4.4
2018-Apr-24 13:55 207 6 gusting 10 4.4
2018-Apr-24 12:55 268 0 gusting 10 4.4
2018-Apr-24 11:55 179 6 gusting 11 4.4
2018-Apr-24 10:55 182 6 gusting 13 4.4
2018-Apr-24 09:55 209 6 gusting 13 4.4
2018-Apr-24 08:55 179 5 gusting 11 4.4
2018-Apr-24 07:55 172 5 gusting 14 4.4
2018-Apr-24 06:55 174 6 gusting 17 4.4
2018-Apr-24 05:55 172 6 gusting 19 4.4
2018-Apr-24 04:55 181 6 gusting 15 4.4
2018-Apr-24 03:55 188 4 gusting 15 4.4
2018-Apr-24 02:55 191 6 gusting 19 4.4
2018-Apr-24 01:55 183 10 gusting 24 4.4
2018-Apr-24 00:55 181 9 gusting 24 5.0
2018-Apr-23 23:55 181 10 gusting 23 5.0
2018-Apr-23 22:55 176 7 gusting 19 5.0
2018-Apr-23 21:55 181 8 gusting 29 5.0
2018-Apr-23 20:55 165 6 gusting 22 4.4
2018-Apr-23 19:55 151 6 gusting 21 4.4
2018-Apr-23 18:55 160 7 gusting 23 4.4
2018-Apr-23 17:55 156 6 gusting 21 3.9
2018-Apr-23 16:55 172 7 gusting 20 3.9
2018-Apr-23 15:55 169 6 gusting 19 3.9
2018-Apr-23 14:55 158 8 gusting 23 3.9
2018-Apr-23 13:55 183 5 gusting 19 3.9
2018-Apr-23 12:55 177 10 gusting 26 5.0
2018-Apr-23 11:55 176 10 gusting 26 6.1
2018-Apr-23 10:55 183 9 gusting 21 5.6
2018-Apr-23 09:55 156 9 gusting 26 5.6
2018-Apr-23 08:55 192 11 gusting 20 5.0
2018-Apr-23 07:55 169 7 gusting 20 5.0
2018-Apr-23 06:55 182 6 gusting 19 5.0
2018-Apr-23 05:55 180 6 gusting 19 5.0
2018-Apr-23 04:55 159 6 gusting 23 4.4
2018-Apr-23 03:55 135 4 gusting 17 4.4
2018-Apr-23 02:55 142 5 gusting 14 4.4
2018-Apr-23 01:55 133 6 gusting 17 5.0
2018-Apr-23 00:55 161 6 gusting 16 5.0
2018-Apr-22 23:55 179 5 gusting 18 5.0
2018-Apr-22 22:55 174 6 gusting 14 5.0
2018-Apr-22 21:55 194 6 gusting 17 5.6
2018-Apr-22 20:55 168 6 gusting 15 5.6